Location: Brantley
(31.5822°N, 86.2569°W)
Time: 20:18:17
(UTC+00:00)

Injun/Solrad 3 - Pass Details

Date: 22 February 2026
Orbit: 872 x 984 km, 66.8° (Epoch: 8 March)

Event Time Altitude Azimuth Distance (km) Brightness Sun altitude
Rises 16:52:21 0° 247° (WSW) 3,450 10.9 45.5°
Reaches altitude 10° 16:55:40 10° 266° (W) 2,520 10.1 45.8°
Maximum altitude 16:59:30 18° 308° (NW) 2,033 9.5 46.1°
Drops below altitude 10° 17:03:23 10° 350° (N) 2,554 9.9 46.4°
Sets 17:06:48 0° 9° (N) 3,515 10.6 46.6°
